MTN7464 KUNV-KPIT

Flight info

Callsign MTN7464
Flight time 0h 53m
Altitude 8000
Route PSB HAYNZ7
Aircraft C208/L-SDFGR/C

Departure

Time 2026-05-06 01:54
Airport State College Regional Airport (KUNV)

Arrival

Time 2026-05-06 02:47
Airport Pittsburgh International Airport (KPIT)
Time Latitude Longitude Altitude Speed Heading
2026-05-06 01:36 40.85058 -77.85134 1234 ft 0 kts 304°
2026-05-06 01:43 40.85047 -77.85080 1233 ft 17 kts 79°
2026-05-06 01:43 40.85059 -77.85149 1245 ft 10 kts 257°
2026-05-06 01:44 40.85040 -77.85140 1239 ft 9 kts 78°
2026-05-06 01:44 40.85034 -77.85024 1232 ft 21 kts 118°
2026-05-06 01:44 40.85018 -77.84980 1232 ft 4 kts 83°
2026-05-06 01:44 40.85107 -77.85002 1232 ft 13 kts 18°
2026-05-06 01:45 40.85121 -77.84985 1231 ft 0 kts 61°
2026-05-06 01:47 40.85132 -77.84947 1230 ft 9 kts 81°
2026-05-06 01:47 40.85153 -77.84838 1229 ft 10 kts 66°
2026-05-06 01:48 40.85147 -77.84750 1228 ft 16 kts 84°
2026-05-06 01:48 40.85194 -77.84666 1226 ft 14 kts 53°
2026-05-06 01:48 40.85248 -77.84571 1224 ft 8 kts 53°
2026-05-06 01:48 40.85300 -77.84479 1222 ft 6 kts 48°
2026-05-06 01:49 40.85346 -77.84400 1220 ft 17 kts 53°
2026-05-06 01:49 40.85399 -77.84306 1219 ft 10 kts 53°
2026-05-06 01:49 40.85461 -77.84195 1216 ft 16 kts 53°
2026-05-06 01:49 40.85530 -77.84085 1214 ft 18 kts 49°
2026-05-06 01:50 40.85607 -77.83954 1212 ft 10 kts 54°
2026-05-06 01:50 40.85634 -77.83893 1211 ft 6 kts 88°
2026-05-06 01:50 40.85617 -77.83867 1211 ft 0 kts 148°
2026-05-06 01:53 40.85591 -77.83843 1212 ft 10 kts 145°
2026-05-06 01:53 40.85521 -77.83856 1213 ft 17 kts 241°
2026-05-06 01:54 40.85243 -77.84353 1278 ft 101 kts 233°
2026-05-06 01:54 40.84772 -77.84886 2007 ft 86 kts 201°
2026-05-06 01:54 40.84028 -77.85056 2114 ft 129 kts 182°
2026-05-06 01:54 40.83082 -77.84865 2199 ft 144 kts 164°
2026-05-06 01:55 40.82162 -77.84289 2292 ft 149 kts 148°
2026-05-06 01:55 40.81387 -77.83382 2405 ft 150 kts 131°
2026-05-06 01:55 40.80830 -77.82224 2521 ft 150 kts 115°
2026-05-06 01:55 40.80537 -77.80902 2643 ft 151 kts 99°
2026-05-06 01:56 40.80532 -77.79521 2761 ft 151 kts 83°
2026-05-06 01:56 40.80874 -77.78234 2864 ft 151 kts 51°
2026-05-06 01:56 40.81793 -77.77673 2952 ft 150 kts
2026-05-06 01:56 40.82767 -77.78071 3066 ft 149 kts 325°
2026-05-06 01:57 40.83363 -77.79160 3116 ft 151 kts 288°
2026-05-06 01:57 40.83463 -77.80551 3121 ft 152 kts 272°
2026-05-06 01:57 40.83520 -77.81950 3135 ft 153 kts 275°
2026-05-06 01:57 40.83610 -77.83354 3135 ft 154 kts 276°
2026-05-06 01:58 40.83714 -77.84760 3135 ft 154 kts 276°
2026-05-06 01:58 40.83818 -77.86166 3136 ft 154 kts 276°
2026-05-06 01:58 40.83923 -77.87574 3137 ft 154 kts 276°
2026-05-06 01:58 40.84026 -77.88964 3241 ft 149 kts 276°
2026-05-06 01:59 40.84125 -77.90309 3387 ft 146 kts 276°
2026-05-06 01:59 40.84222 -77.91638 3537 ft 145 kts 276°
2026-05-06 01:59 40.84287 -77.92515 3634 ft 145 kts 276°
2026-05-06 01:59 40.84417 -77.94283 3838 ft 144 kts 276°
2026-05-06 02:00 40.84514 -77.95603 3989 ft 145 kts 276°
2026-05-06 02:00 40.84610 -77.96907 4138 ft 145 kts 276°
2026-05-06 02:00 40.84708 -77.98229 4288 ft 144 kts 276°
2026-05-06 02:00 40.84773 -77.99120 4389 ft 144 kts 276°
2026-05-06 02:01 40.84901 -78.00870 4577 ft 145 kts 276°
2026-05-06 02:01 40.84995 -78.02167 4829 ft 140 kts 276°
2026-05-06 02:01 40.85057 -78.03024 4997 ft 138 kts 276°
2026-05-06 02:01 40.85148 -78.04286 5247 ft 138 kts 275°
2026-05-06 02:02 40.85239 -78.05543 5497 ft 137 kts 276°
2026-05-06 02:02 40.85330 -78.06798 5747 ft 137 kts 275°
2026-05-06 02:02 40.85421 -78.08052 5998 ft 137 kts 276°
2026-05-06 02:02 40.85512 -78.09308 6247 ft 137 kts 275°
2026-05-06 02:03 40.85603 -78.10563 6498 ft 137 kts 276°
2026-05-06 02:03 40.85693 -78.11819 6748 ft 137 kts 275°
2026-05-06 02:03 40.85784 -78.13076 6994 ft 137 kts 276°
2026-05-06 02:03 40.85873 -78.14315 7245 ft 137 kts 275°
2026-05-06 02:04 40.85964 -78.15588 7499 ft 137 kts 276°
2026-05-06 02:04 40.86054 -78.16829 7742 ft 138 kts 275°
2026-05-06 02:04 40.86143 -78.18087 7996 ft 138 kts 276°
2026-05-06 02:04 40.86235 -78.19365 8135 ft 145 kts 276°
2026-05-06 02:05 40.86334 -78.20734 8137 ft 153 kts 276°
2026-05-06 02:05 40.86437 -78.22150 8138 ft 156 kts 276°
2026-05-06 02:05 40.86540 -78.23581 8139 ft 157 kts 276°
2026-05-06 02:05 40.86642 -78.25020 8140 ft 157 kts 275°
2026-05-06 02:06 40.86744 -78.26459 8140 ft 158 kts 276°
2026-05-06 02:06 40.86845 -78.27902 8140 ft 158 kts 276°
2026-05-06 02:06 40.86948 -78.29342 8142 ft 158 kts 276°
2026-05-06 02:06 40.87049 -78.30784 8142 ft 158 kts 276°
2026-05-06 02:07 40.87151 -78.32225 8143 ft 158 kts 275°
2026-05-06 02:07 40.87253 -78.33667 8143 ft 158 kts 276°
2026-05-06 02:07 40.87353 -78.35108 8144 ft 158 kts 275°
2026-05-06 02:07 40.87455 -78.36552 8144 ft 158 kts 276°
2026-05-06 02:08 40.87555 -78.37995 8144 ft 158 kts 275°
2026-05-06 02:08 40.87656 -78.39438 8145 ft 158 kts 276°
2026-05-06 02:08 40.87756 -78.40881 8145 ft 158 kts 276°
2026-05-06 02:08 40.87857 -78.42322 8145 ft 158 kts 275°
2026-05-06 02:09 40.87956 -78.43764 8146 ft 158 kts 276°
2026-05-06 02:09 40.88056 -78.45206 8146 ft 158 kts 275°
2026-05-06 02:09 40.88156 -78.46649 8147 ft 158 kts 276°
2026-05-06 02:09 40.88255 -78.48092 8147 ft 158 kts 275°
2026-05-06 02:10 40.88355 -78.49534 8148 ft 158 kts 275°
2026-05-06 02:10 40.88454 -78.50977 8147 ft 158 kts 276°
2026-05-06 02:10 40.88553 -78.52421 8148 ft 158 kts 275°
2026-05-06 02:10 40.88652 -78.53864 8148 ft 158 kts 276°
2026-05-06 02:11 40.88748 -78.55309 8149 ft 158 kts 275°
2026-05-06 02:11 40.88821 -78.56755 8148 ft 158 kts 274°
2026-05-06 02:11 40.88867 -78.58203 8148 ft 158 kts 272°
2026-05-06 02:11 40.88681 -78.59608 8125 ft 159 kts 240°
2026-05-06 02:12 40.87905 -78.60633 8133 ft 158 kts 224°
2026-05-06 02:12 40.87218 -78.61733 8136 ft 157 kts 242°
2026-05-06 02:12 40.86798 -78.63066 8139 ft 158 kts 251°
2026-05-06 02:12 40.86445 -78.64456 8141 ft 158 kts 252°
2026-05-06 02:13 40.86098 -78.65830 8141 ft 158 kts 252°
2026-05-06 02:13 40.85752 -78.67185 8141 ft 158 kts 252°
2026-05-06 02:13 40.85400 -78.68557 8142 ft 158 kts 252°
2026-05-06 02:13 40.85048 -78.69928 8142 ft 158 kts 252°
2026-05-06 02:14 40.84696 -78.71301 8143 ft 158 kts 252°
2026-05-06 02:14 40.84344 -78.72672 8143 ft 158 kts 252°
2026-05-06 02:14 40.83991 -78.74045 8144 ft 158 kts 252°
2026-05-06 02:14 40.83637 -78.75416 8132 ft 160 kts 252°
2026-05-06 02:15 40.83279 -78.76814 8141 ft 161 kts 252°
2026-05-06 02:15 40.82919 -78.78214 8141 ft 161 kts 252°
2026-05-06 02:15 40.82556 -78.79620 8141 ft 162 kts 252°
2026-05-06 02:15 40.82195 -78.81023 8142 ft 162 kts 252°
2026-05-06 02:16 40.81833 -78.82427 8143 ft 161 kts 252°
2026-05-06 02:16 40.81471 -78.83830 8143 ft 162 kts 252°
2026-05-06 02:16 40.81109 -78.85234 8144 ft 161 kts 252°
2026-05-06 02:16 40.80746 -78.86637 8144 ft 162 kts 252°
2026-05-06 02:17 40.80380 -78.88058 8145 ft 162 kts 252°
2026-05-06 02:17 40.80021 -78.89442 8145 ft 162 kts 252°
2026-05-06 02:17 40.79659 -78.90845 8146 ft 162 kts 251°
2026-05-06 02:17 40.79295 -78.92250 8147 ft 162 kts 252°
2026-05-06 02:18 40.78932 -78.93652 8147 ft 162 kts 251°
2026-05-06 02:18 40.78568 -78.95056 8147 ft 162 kts 252°
2026-05-06 02:18 40.78204 -78.96459 8148 ft 162 kts 252°
2026-05-06 02:18 40.77840 -78.97864 8148 ft 162 kts 251°
2026-05-06 02:19 40.77476 -78.99266 8149 ft 162 kts 252°
2026-05-06 02:19 40.77111 -79.00670 8149 ft 162 kts 251°
2026-05-06 02:19 40.76747 -79.02073 8150 ft 162 kts 252°
2026-05-06 02:19 40.76381 -79.03477 8149 ft 162 kts 252°
2026-05-06 02:20 40.75651 -79.06282 8150 ft 162 kts 252°
2026-05-06 02:20 40.75286 -79.07685 8149 ft 162 kts 251°
2026-05-06 02:20 40.74920 -79.09088 8149 ft 162 kts 252°
2026-05-06 02:21 40.74555 -79.10488 8149 ft 162 kts 251°
2026-05-06 02:21 40.74190 -79.11890 8150 ft 162 kts 252°
2026-05-06 02:21 40.73823 -79.13292 8148 ft 162 kts 252°
2026-05-06 02:21 40.73457 -79.14693 8148 ft 162 kts 251°
2026-05-06 02:22 40.73091 -79.16093 8149 ft 162 kts 252°
2026-05-06 02:22 40.72725 -79.17494 8150 ft 162 kts 251°
2026-05-06 02:22 40.72358 -79.18896 8148 ft 162 kts 252°
2026-05-06 02:22 40.71991 -79.20298 8148 ft 162 kts 251°
2026-05-06 02:23 40.71624 -79.21700 8148 ft 162 kts 251°
2026-05-06 02:23 40.71256 -79.23100 8149 ft 162 kts 252°
2026-05-06 02:23 40.70890 -79.24499 8150 ft 162 kts 251°
2026-05-06 02:23 40.70523 -79.25900 8148 ft 162 kts 252°
2026-05-06 02:24 40.70155 -79.27299 8148 ft 162 kts 251°
2026-05-06 02:24 40.69789 -79.28697 8149 ft 161 kts 251°
2026-05-06 02:24 40.69420 -79.30095 8149 ft 162 kts 251°
2026-05-06 02:24 40.69058 -79.31475 8150 ft 161 kts 251°
2026-05-06 02:25 40.68689 -79.32875 8148 ft 162 kts 252°
2026-05-06 02:25 40.68322 -79.34272 8148 ft 162 kts 251°
2026-05-06 02:25 40.67953 -79.35670 8148 ft 162 kts 251°
2026-05-06 02:25 40.67585 -79.37067 8148 ft 161 kts 251°
2026-05-06 02:26 40.67217 -79.38465 8149 ft 161 kts 251°
2026-05-06 02:26 40.66848 -79.39860 8150 ft 162 kts 251°
2026-05-06 02:26 40.66479 -79.41257 8148 ft 161 kts 251°
2026-05-06 02:26 40.66110 -79.42654 8149 ft 162 kts 251°
2026-05-06 02:27 40.65740 -79.44051 8150 ft 162 kts 251°
2026-05-06 02:27 40.65371 -79.45449 8150 ft 162 kts 251°
2026-05-06 02:27 40.65000 -79.46846 8148 ft 162 kts 251°
2026-05-06 02:27 40.64632 -79.48242 8149 ft 161 kts 251°
2026-05-06 02:28 40.64262 -79.49637 8150 ft 161 kts 251°
2026-05-06 02:28 40.63891 -79.51034 8148 ft 162 kts 251°
2026-05-06 02:28 40.63521 -79.52430 8148 ft 161 kts 251°
2026-05-06 02:28 40.63151 -79.53825 8149 ft 161 kts 251°
2026-05-06 02:29 40.62781 -79.55220 8149 ft 161 kts 251°
2026-05-06 02:29 40.62410 -79.56614 8150 ft 161 kts 251°
2026-05-06 02:29 40.62040 -79.58008 8148 ft 161 kts 251°
2026-05-06 02:29 40.61669 -79.59403 8149 ft 161 kts 251°
2026-05-06 02:30 40.61298 -79.60795 8149 ft 161 kts 251°
2026-05-06 02:30 40.60928 -79.62189 8150 ft 161 kts 251°
2026-05-06 02:30 40.60556 -79.63581 8150 ft 161 kts 251°
2026-05-06 02:30 40.60185 -79.64974 8152 ft 161 kts 251°
2026-05-06 02:31 40.59813 -79.66366 8153 ft 161 kts 251°
2026-05-06 02:31 40.59441 -79.67760 8153 ft 161 kts 251°
2026-05-06 02:31 40.59070 -79.69153 8154 ft 161 kts 251°
2026-05-06 02:31 40.58697 -79.70545 8154 ft 161 kts 251°
2026-05-06 02:32 40.58325 -79.71938 8155 ft 161 kts 251°
2026-05-06 02:32 40.57953 -79.73328 8155 ft 161 kts 251°
2026-05-06 02:32 40.57580 -79.74720 8156 ft 161 kts 251°
2026-05-06 02:32 40.57208 -79.76112 8157 ft 161 kts 251°
2026-05-06 02:33 40.56834 -79.77504 8123 ft 163 kts 251°
2026-05-06 02:33 40.56583 -79.78445 8041 ft 166 kts 251°
2026-05-06 02:33 40.55660 -79.81850 7622 ft 172 kts 250°
2026-05-06 02:34 40.55231 -79.83321 7412 ft 173 kts 249°
2026-05-06 02:34 40.54783 -79.84764 7203 ft 173 kts 248°
2026-05-06 02:34 40.54309 -79.86210 6993 ft 172 kts 247°
2026-05-06 02:34 40.53806 -79.87663 6779 ft 172 kts 246°
2026-05-06 02:35 40.53294 -79.89061 6572 ft 172 kts 244°
2026-05-06 02:35 40.52747 -79.90481 6359 ft 172 kts 243°
2026-05-06 02:35 40.52186 -79.91865 6171 ft 171 kts 242°
2026-05-06 02:35 40.51620 -79.93192 6164 ft 164 kts 240°
2026-05-06 02:36 40.51044 -79.94469 6164 ft 162 kts 239°
2026-05-06 02:36 40.50513 -79.95584 6164 ft 161 kts 238°
2026-05-06 02:36 40.49907 -79.96793 6164 ft 160 kts 237°
2026-05-06 02:36 40.49271 -79.97997 6127 ft 162 kts 235°
2026-05-06 02:37 40.48592 -79.99224 5928 ft 168 kts 234°
2026-05-06 02:37 40.47952 -80.00515 5725 ft 170 kts 251°
2026-05-06 02:37 40.47960 -80.02038 5533 ft 170 kts 285°
2026-05-06 02:37 40.48452 -80.03431 5333 ft 170 kts 311°
2026-05-06 02:38 40.49467 -80.04211 5138 ft 171 kts 337°
2026-05-06 02:38 40.50508 -80.04935 4920 ft 171 kts 317°
2026-05-06 02:38 40.51155 -80.06233 4704 ft 170 kts 309°
2026-05-06 02:38 40.52161 -80.06990 4507 ft 171 kts 350°
2026-05-06 02:39 40.53302 -80.06673 4325 ft 171 kts 32°
2026-05-06 02:39 40.54065 -80.05489 4171 ft 171 kts 59°
2026-05-06 02:39 40.54650 -80.04168 4166 ft 165 kts 60°
2026-05-06 02:39 40.55220 -80.02872 4167 ft 163 kts 60°
2026-05-06 02:40 40.55786 -80.01585 4166 ft 163 kts 60°
2026-05-06 02:40 40.56082 -80.00182 4164 ft 162 kts 96°
2026-05-06 02:40 40.55567 -79.98905 4165 ft 162 kts 140°
2026-05-06 02:40 40.54527 -79.98437 4169 ft 160 kts 177°
2026-05-06 02:41 40.53430 -79.98395 4164 ft 154 kts 180°
2026-05-06 02:41 40.52425 -79.98699 4161 ft 149 kts 216°
2026-05-06 02:41 40.51803 -79.99755 4165 ft 146 kts 240°
2026-05-06 02:41 40.51283 -80.00904 4166 ft 146 kts 240°
2026-05-06 02:42 40.50762 -80.02052 4167 ft 146 kts 240°
2026-05-06 02:42 40.50242 -80.03202 4167 ft 146 kts 240°
2026-05-06 02:42 40.49816 -80.04437 3987 ft 154 kts 254°
2026-05-06 02:42 40.49717 -80.05845 3783 ft 156 kts 269°
2026-05-06 02:43 40.49720 -80.07279 3572 ft 157 kts 271°
2026-05-06 02:43 40.49743 -80.08716 3363 ft 157 kts 272°
2026-05-06 02:43 40.49788 -80.10153 3155 ft 157 kts 272°
2026-05-06 02:43 40.49821 -80.11587 2946 ft 157 kts 272°
2026-05-06 02:44 40.49864 -80.13012 2734 ft 151 kts 272°
2026-05-06 02:44 40.49893 -80.14346 2536 ft 143 kts 272°
2026-05-06 02:44 40.49932 -80.15634 2355 ft 140 kts 272°
2026-05-06 02:44 40.49963 -80.16855 2173 ft 120 kts 273°
2026-05-06 02:45 40.49989 -80.17841 2030 ft 98 kts 272°
2026-05-06 02:45 40.50007 -80.18657 1916 ft 91 kts 272°
2026-05-06 02:45 40.50031 -80.19508 1794 ft 95 kts 273°
2026-05-06 02:45 40.50056 -80.20384 1665 ft 97 kts 273°
2026-05-06 02:46 40.50070 -80.20971 1579 ft 97 kts 273°
2026-05-06 02:46 40.50095 -80.21859 1448 ft 98 kts 273°
2026-05-06 02:46 40.50115 -80.22749 1320 ft 98 kts 272°
2026-05-06 02:46 40.50150 -80.23848 1171 ft 76 kts 273°
2026-05-06 02:47 40.50173 -80.24577 1152 ft 76 kts 264°
2026-05-06 02:47 40.50175 -80.24989 1149 ft 56 kts 265°
2026-05-06 02:47 40.50195 -80.25402 1148 ft 42 kts 270°
2026-05-06 02:47 40.50167 -80.26118 1328 ft 103 kts 271°
2026-05-06 02:48 40.50258 -80.27105 1659 ft 114 kts 279°
2026-05-06 02:48 40.50363 -80.27264 1543 ft 146 kts 317°
2026-05-06 02:48 40.50967 -80.27780 2553 ft 121 kts 328°
2026-05-06 02:48 40.51825 -80.28302 2901 ft 139 kts 345°
2026-05-06 02:49 40.52715 -80.28515 3627 ft 134 kts
2026-05-06 02:49 40.53584 -80.28064 4155 ft 142 kts 49°
2026-05-06 02:49 40.54102 -80.26760 3830 ft 188 kts 80°
2026-05-06 02:49 40.53924 -80.25186 3973 ft 166 kts 114°
2026-05-06 02:50 40.53571 -80.23812 4077 ft 156 kts 91°
2026-05-06 02:50 40.53763 -80.22434 4150 ft 153 kts 73°
2026-05-06 02:50 40.54230 -80.21163 4152 ft 156 kts 61°
2026-05-06 02:50 40.54769 -80.19923 4151 ft 157 kts 60°
2026-05-06 02:51 40.55312 -80.18679 4153 ft 157 kts 60°
2026-05-06 02:51 40.55855 -80.17435 4152 ft 157 kts 60°
2026-05-06 02:51 40.56400 -80.16187 4153 ft 157 kts 61°
2026-05-06 02:51 40.56639 -80.14805 4156 ft 157 kts 89°
2026-05-06 02:52 40.56650 -80.13365 4157 ft 158 kts 90°
2026-05-06 02:52 40.56654 -80.11923 4158 ft 158 kts 90°
2026-05-06 02:52 40.56658 -80.10479 4158 ft 158 kts 90°
2026-05-06 02:52 40.56662 -80.09037 4159 ft 158 kts 90°
2026-05-06 02:53 40.56668 -80.07591 4156 ft 158 kts 90°
2026-05-06 02:53 40.56672 -80.06147 4156 ft 158 kts 90°
2026-05-06 02:53 40.56678 -80.04702 4157 ft 158 kts 90°
2026-05-06 02:53 40.56535 -80.03289 4161 ft 157 kts 117°
2026-05-06 02:54 40.55723 -80.02392 4171 ft 156 kts 165°
2026-05-06 02:54 40.54647 -80.02266 4167 ft 156 kts 180°
2026-05-06 02:54 40.53563 -80.02238 4167 ft 156 kts 180°
2026-05-06 02:54 40.52567 -80.02674 4166 ft 155 kts 223°
2026-05-06 02:55 40.51948 -80.03820 4169 ft 154 kts 240°
2026-05-06 02:55 40.51400 -80.05032 4167 ft 154 kts 240°
2026-05-06 02:55 40.50852 -80.06244 4166 ft 154 kts 240°
2026-05-06 02:55 40.50306 -80.07454 4167 ft 154 kts 240°
2026-05-06 02:56 40.49865 -80.08730 4126 ft 156 kts 262°
2026-05-06 02:56 40.49820 -80.10169 3948 ft 163 kts 270°
2026-05-06 02:56 40.49830 -80.11728 3400 ft 177 kts 271°
2026-05-06 02:56 40.49872 -80.13167 3156 ft 133 kts 273°
2026-05-06 02:57 40.49902 -80.14226 2947 ft 106 kts 274°
2026-05-06 02:57 40.49932 -80.15249 2672 ft 119 kts 273°
2026-05-06 02:57 40.49974 -80.16307 2404 ft 113 kts 274°
2026-05-06 02:57 40.50020 -80.17327 2161 ft 108 kts 273°
2026-05-06 02:58 40.50054 -80.18273 1927 ft 100 kts 274°
2026-05-06 02:58 40.50080 -80.19144 1752 ft 92 kts 271°
2026-05-06 02:58 40.50082 -80.20016 1631 ft 99 kts 272°
2026-05-06 02:58 40.50106 -80.20855 1576 ft 90 kts 271°
2026-05-06 02:59 40.50120 -80.21710 1488 ft 94 kts 271°
2026-05-06 02:59 40.50141 -80.22536 1350 ft 86 kts 272°
2026-05-06 02:59 40.50148 -80.23331 1218 ft 81 kts 271°
2026-05-06 02:59 40.50160 -80.24008 1152 ft 71 kts 271°
2026-05-06 03:00 40.50170 -80.24589 1152 ft 57 kts 269°
2026-05-06 03:00 40.50082 -80.24963 1153 ft 38 kts 190°
2026-05-06 03:00 40.49952 -80.24854 1154 ft 9 kts 61°
2026-05-06 03:00 40.49957 -80.24845 1154 ft 0 kts 48°